Location: Seattle
(47.6064°N, 122.3308°W)
Time: 05:03:27
(UTC-07:00)

SEEDS - Visible Passes

Search period start: 02 April 2023 00:00
Search period end: 12 April 2023 00:00
Orbit: 573 x 588 km, 97.6° (Epoch: 01 April)

Date Brightness Start Highest point End Pass type
(mag) Time Alt. Az. Time Alt. Az. Time Alt. Az.
02 Apr ? 04:00:29 10° NE 04:02:45 14° E 04:04:59 10° ESE visible
02 Apr ? 05:34:21 10° N 05:38:29 61° WNW 05:42:35 10° SSW visible
03 Apr ? 04:05:13 10° NE 04:07:49 16° E 04:10:23 10° SE visible
03 Apr ? 05:39:24 10° N 05:43:29 54° WNW 05:47:32 10° SSW visible
04 Apr ? 04:10:00 10° NE 04:12:52 18° E 04:15:42 10° SE visible
04 Apr ? 05:44:26 10° N 05:48:27 48° WNW 05:52:27 10° SW visible
05 Apr ? 04:14:47 10° NE 04:17:53 20° E 04:20:57 10° SE visible
05 Apr ? 05:49:28 10° N 05:53:25 42° WNW 05:57:20 10° SW visible
06 Apr ? 04:19:36 10° NE 04:22:53 22° E 04:26:09 10° SE visible
06 Apr ? 05:54:28 10° N 05:58:21 38° WNW 06:02:11 10° SW visible
07 Apr ? 04:24:24 10° NE 04:27:52 25° E 04:31:18 10° SSE visible
07 Apr ? 05:59:28 10° N 06:03:16 34° WNW 06:07:00 10° SW visible
08 Apr ? 04:29:13 10° NE 04:32:50 28° E 04:36:24 10° SSE visible
09 Apr ? 04:34:03 10° NNE 04:37:46 31° E 04:41:28 10° SSE visible
10 Apr ? 04:38:52 10° NNE 04:42:42 34° E 04:46:30 10° SSE visible
11 Apr ? 04:43:41 10° NNE 04:47:36 39° E 04:51:29 10° SSE visible
